SCP
1 1 1 1 1 1 1 1 1 1 1 1 1 1 1 1 1 1 1 1 1 1 1 1 1 1 1 1 1 1 1 1 1 1 1 1 1 1 1 1 1 1 1
1 1 1 1 1 1 1 1 1 1 1 1 1 1 1 1 1 1 1 1 1 1 1 1 1 1 1 1 1 1 1 1 1 1 1 1 1 1 1 1 1 1 1
1 1 1 1 1 1 1 1 1 1 1 1 1 1 1 1 1 1 1 1 1 1 1 1 1 1 1 1 1 1 1 1 1 1 1 1 1 1 1 1 1 1 1
1 1 1 1 1 1 1 1 1 1 1 1 1 1 1 1 1 2 2 2 1 1 1 1 1 1 1 1 1 1 1 1 1 1 1 1 1 1 1 1 1 1 1
1 1 1 1 1 1 1 1 1 1 1 1 1 1 1 1 2 3 3 2 2 1 1 1 1 1 1 1 1 1 1 1 1 1 1 1 1 1 1 1 1 1 1
1 1 1 1 1 1 1 1 1 1 1 1 1 1 1 1 2 3 3 2 2 1 1 1 1 1 1 1 1 1 1 1 1 1 1 1 1 1 1 1 2 2 2
0 1 1 1 1 1 1 1 1 1 1 1 1 1 1 1 2 3 3 2 2 1 1 1 1 1 1 1 1 1 1 1 1 1 1 1 1 1 1 1 1 2 2
0 0 1 1 1 1 1 1 1 1 1 1 1 1 1 1 1 2 2 2 2 1 1 1 1 1 1 1 1 1 1 1 1 1 1 1 1 1 1 1 1 1 1
0 0 0 0 1 1 1 1 1 1 1 1 1 1 1 1 1 1 2 2 2 1 1 1 1 1 1 1 1 1 1 1 1 1 1 1 1 1 1 1 1 1 1
0 0 0 0 0 1 1 1 1 1 1 1 1 1 1 1 1 1 1 1 1 1 1 2 2 1 1 1 1 1 1 1 1 1 1 1 1 1 1 1 1 1 1
0 0 0 0 0 0 1 1 1 1 1 1 1 1 1 1 1 1 1 1 1 1 2 2 2 2 1 1 1 1 1 1 1 1 1 1 1 1 1 1 1 2 2
0 0 0 0 0 0 0 1 1 1 1 1 1 0 0 0 0 1 1 2 2 2 2 2 2 1 1 1 1 1 1 1 1 1 1 1 1 1 1 2 2 2 2
0 0 0 0 0 0 0 0 0 0 0 0 0 0 0 0 0 1 1 2 2 2 1 1 1 1 1 1 1 1 1 1 1 1 1 1 1 2 2 2 2 3 2
0 0 0 0 0 0 1 0 0 0 0 0 0 0 0 0 0 1 1 1 1 1 1 1 1 1 1 1 1 1 1 1 1 1 1 1 2 2 2 2 3 3 3
0 0 0 0 1 1 1 1 0 0 0 0 0 0 0 0 0 1 1 1 1 1 1 1 1 1 1 1 1 1 1 1 1 1 1 2 2 2 2 2 2 2 2
0 0 0 0 1 1 1 1 0 0 0 0 0 0 1 1 1 1 1 0 0 0 0 0 1 1 1 1 1 1 1 1 1 1 1 1 2 2 2 1 1 1 1
0 0 0 1 1 1 1 1 0 0 0 0 0 1 1 1 1 1 0 0 0 0 0 0 1 1 1 1 1 1 1 1 1 1 1 1 1 1 1 1 1 1 1
0 0 1 1 1 1 1 1 0 0 0 0 0 0 0 1 1 1 1 1 0 0 0 0 1 1 1 1 1 1 1 1 1 1 1 1 1 1 1 1 2 2 2
0 0 1 1 1 1 0 0 0 0 1 1 0 0 0 0 1 1 1 1 1 0 0 0 0 1 1 1 1 1 1 1 1 1 0 1 1 1 1 1 2 2 2
0 1 1 1 1 0 0 0 1 1 1 1 0 0 0 1 1 1 1 1 1 0 0 0 0 0 0 0 0 1 1 0 0 0 0 0 1 1 1 1 1 2 2
1 1 1 1 1 1 1 1 1 1 1 1 0 0 1 1 1 1 1 1 1 1 0 0 0 0 0 1 1 1 0 0 0 0 0 0 0 1 1 1 1 1 1
1 1 1 1 0 1 1 1 1 1 1 0 0 0 0 1 1 0 1 1 1 1 0 1 1 1 1 1 1 1 1 0 0 0 0 0 0 0 1 1 1 1 1
1 1 1 0 0 1 1 1 1 1 1 1 1 1 1 1 1 0 0 0 0 0 0 1 1 1 1 1 1 1 1 1 1 1 1 1 1 1 1 0 1 1 1
1 1 0 0 0 1 1 1 1 1 1 1 1 1 1 1 1 1 0 0 0 0 1 1 1 1 1 1 1 1 1 2 1 1 1 1 1 1 1 0 0 1 1
1 1 0 0 0 1 1 1 1 1 1 1 1 1 1 1 1 1 1 1 1 1 1 1 1 1 1 1 1 1 2 2 2 2 2 2 2 1 1 0 0 1 1
1 1 0 0 0 1 1 1 1 1 1 1 1 1 1 1 1 1 1 1 1 1 1 1 1 1 1 1 1 1 2 2 3 3 3 2 1 1 1 0 1 1 1
Wind_Speed
2 2 1 1 2 3 3 4 5 5 6 6 6 6 7 8 9 10 10 11 11 10 10 10 10 9 9 10 9 9 9 10 10 10 10 9 9 9 9 10 10 8 11
0 1 0 2 3 3 3 5 5 6 6 6 6 6 6 7 8 9 10 10 11 10 10 10 10 10 9 8 8 8 9 9 10 9 9 8 9 9 9 10 9 7 11
1 1 1 2 3 3 3 4 5 5 6 6 6 5 6 7 7 9 9 10 10 10 10 9 9 9 9 8 7 8 9 9 9 8 8 4 6 8 9 10 10 10 10
1 1 1 2 3 3 3 4 4 5 5 5 5 6 7 7 8 9 10 9 9 9 9 9 9 9 8 7 7 8 8 8 8 8 4 3 4 7 9 9 10 9 10
2 2 1 3 3 4 3 4 4 5 5 5 6 6 7 8 9 10 10 9 9 9 9 9 9 8 8 7 7 7 7 8 7 5 3 3 2 6 8 9 9 9 9
2 2 1 4 4 4 4 4 4 4 5 5 6 7 7 7 8 9 9 8 8 9 8 8 8 7 7 6 6 6 6 6 5 3 3 3 3 5 7 8 9 9 9
1 2 2 4 4 4 4 4 4 4 4 5 5 6 7 7 7 8 8 7 7 7 7 7 7 7 6 6 5 5 5 5 4 3 3 2 3 6 7 7 8 9 9
2 2 2 3 4 5 5 4 5 5 4 5 5 5 6 6 6 6 6 6 6 6 5 5 6 6 6 5 5 4 4 4 3 3 2 3 5 7 8 8 8 8 9
3 3 3 3 3 4 5 5 5 5 4 4 4 4 4 4 5 4 5 5 5 5 4 4 5 5 5 5 5 4 4 3 2 1 2 2 5 7 8 8 8 8 8
4 3 3 3 4 3 3 5 5 5 4 4 4 4 4 3 3 3 3 3 3 3 3 3 3 4 5 5 4 4 3 2 1 1 1 2 6 7 7 7 8 8 8
3 3 3 3 3 4 3 4 4 5 5 5 3 4 3 2 1 1 1 2 2 2 2 2 2 3 4 4 3 3 2 1 1 0 1 3 5 6 6 6 6 7 7
1 2 2 2 2 3 3 3 3 3 3 4 3 3 3 3 2 2 2 2 2 2 2 3 4 5 5 3 3 2 1 1 1 0 1 3 4 4 5 5 6 7 7
1 1 2 2 2 3 2 2 2 2 2 3 4 4 3 3 3 3 2 2 3 3 3 4 5 4 4 3 2 1 1 1 0 0 0 1 2 3 4 5 7 7 8
1 1 1 1 2 2 2 2 2 2 2 2 2 3 3 3 3 3 3 3 2 2 3 3 3 4 4 3 2 2 2 1 1 0 0 1 1 2 2 4 6 6 7
2 1 1 2 2 2 2 1 2 2 2 2 2 2 2 2 2 3 2 2 3 2 3 3 3 4 3 3 2 2 1 1 1 0 0 0 0 1 2 2 4 5 6
2 1 1 2 1 2 2 1 1 1 1 1 1 1 2 2 2 2 2 2 2 2 2 2 3 3 2 2 2 2 1 1 0 1 1 1 1 1 2 2 3 4 5
2 2 2 2 1 2 1 1 1 1 1 1 1 2 2 2 2 2 2 2 2 2 2 2 3 3 2 2 2 2 1 1 1 1 1 1 1 1 2 2 2 3 4
3 2 1 2 2 1 1 1 1 1 1 1 1 2 1 2 2 2 2 1 1 2 2 2 2 2 2 2 2 1 1 1 1 1 1 1 1 1 2 2 2 2 3
3 3 2 1 2 1 1 1 1 2 2 1 1 1 1 2 2 2 2 1 1 2 2 1 2 2 2 2 1 1 1 1 1 1 1 1 1 1 1 2 3 3 3
3 3 2 2 1 2 2 2 2 2 2 2 1 1 1 1 2 2 2 1 2 2 2 1 1 1 1 1 2 2 2 1 1 1 1 1 1 1 1 2 2 2 3
3 3 3 2 2 2 1 1 1 1 1 1 1 2 2 2 2 2 2 1 1 1 1 2 2 2 1 1 2 2 2 2 2 1 1 1 1 2 1 1 1 1 1
4 4 4 3 3 2 2 1 1 1 0 0 1 2 2 2 1 1 1 1 1 1 1 1 2 1 0 1 1 1 2 3 3 2 1 1 2 1 2 2 1 1 2
5 6 5 4 3 3 2 2 2 2 2 2 2 1 2 1 1 1 1 1 1 1 1 1 2 2 1 0 1 2 1 1 2 2 2 1 2 1 2 2 2 2 2
6 5 5 4 3 2 3 2 3 2 1 1 1 1 2 2 1 0 1 1 1 1 1 2 2 2 2 1 0 1 1 2 1 2 2 2 2 2 2 2 2 2 2
6 5 4 4 3 3 3 3 3 2 1 0 0 1 1 2 1 1 1 1 1 1 1 1 1 1 1 2 1 1 1 1 1 1 2 3 2 2 2 2 2 2 2
4 4 4 4 3 3 3 3 3 3 2 1 1 0 1 1 1 1 0 0 1 1 1 1 1 1 1 1 1 1 2 2 2 2 2 2 2 3 2 2 1 2 1
Wind_Direction
301 295 296 102 105 88 93 99 105 109 110 112 113 115 123 131 136 138 141 141 142 143 141 139 137 136 134 137 140 138 137 135 135 139 141 141 140 138 138 141 141 140 142
264 306 204 107 117 105 94 100 104 104 108 110 113 117 125 131 137 143 144 144 146 148 147 146 141 137 134 135 136 137 138 137 140 145 145 146 145 142 140 139 142 142 144
52 290 171 100 102 106 104 110 112 111 111 112 115 119 125 129 138 142 145 144 146 149 148 145 140 139 140 143 141 139 139 141 145 147 146 143 147 149 150 146 145 145 146
70 27 124 110 99 97 98 106 117 116 116 118 114 112 123 131 137 139 139 140 146 148 147 145 143 144 145 142 140 143 143 146 151 150 142 137 147 155 155 152 150 150 151
63 25 36 98 95 93 92 104 117 121 123 121 113 107 119 126 131 135 136 139 144 146 146 146 146 148 146 145 144 148 151 151 151 144 129 134 141 161 163 159 157 157 157
55 13 24 75 75 79 87 94 102 113 122 124 119 112 114 123 128 129 131 135 142 145 147 148 150 150 149 147 147 151 154 149 142 134 141 151 157 167 170 168 164 165 163
59 14 37 72 71 74 81 84 91 102 114 119 114 111 112 115 119 123 126 130 136 143 148 150 151 152 150 149 145 147 149 143 130 131 143 163 174 174 175 172 169 168 169
76 32 34 65 69 67 69 77 83 89 106 113 117 114 114 116 117 121 128 134 138 142 151 156 158 155 153 150 144 141 141 139 132 138 164 187 191 186 183 182 178 175 173
56 40 20 16 36 59 62 67 74 74 94 109 115 120 118 117 119 125 134 137 138 145 150 159 168 164 160 152 146 145 141 137 125 152 186 198 196 192 188 187 187 185 183
46 32 23 21 26 32 38 57 67 64 76 92 101 109 114 121 127 131 135 139 141 145 153 169 180 174 167 155 149 143 128 117 105 165 212 197 197 192 192 192 192 191 190
41 22 22 23 28 32 33 49 50 53 58 66 76 86 81 54 69 112 137 124 125 135 134 120 121 128 124 123 128 121 101 94 112 165 200 191 192 192 193 193 193 194 192
50 13 25 37 39 35 40 40 21 30 39 44 45 45 39 33 50 60 66 83 85 78 82 77 76 87 93 96 96 85 79 101 92 262 195 192 190 193 195 197 200 201 199
148 34 24 48 45 47 40 38 26 24 32 41 42 40 39 40 44 46 43 45 46 54 59 60 57 65 79 88 93 88 86 93 91 301 291 167 174 183 192 198 201 205 203
120 96 36 60 60 55 49 39 39 35 38 41 40 38 45 49 43 42 46 49 49 48 54 53 63 66 74 79 86 89 82 86 95 61 133 117 161 177 185 197 201 202 199
142 136 71 74 76 66 55 37 55 47 43 38 42 48 63 68 57 52 49 52 51 54 59 63 71 72 72 63 64 84 87 82 50 24 359 14 166 204 207 203 204 205 198
175 166 123 87 84 84 73 56 45 50 42 47 38 44 73 84 81 72 56 49 48 58 67 73 74 74 68 58 41 40 61 64 47 31 357 319 281 245 239 232 216 211 208
175 163 154 145 111 104 89 55 56 50 57 56 41 48 71 91 93 89 77 61 46 56 64 71 64 63 63 58 43 33 42 35 26 19 356 344 323 295 260 239 223 217 213
162 159 177 156 123 112 91 61 42 46 53 40 41 52 68 101 111 105 94 77 55 59 66 76 69 61 53 47 36 25 41 39 9 14 6 348 336 323 304 274 241 231 234
174 168 163 151 134 129 99 66 47 43 43 36 44 50 59 92 114 115 108 96 81 74 68 84 74 75 61 38 31 34 26 19 2 15 13 338 321 308 306 313 289 267 259
170 166 163 158 142 114 87 60 40 34 26 29 32 32 51 74 95 109 114 100 100 93 77 75 81 66 77 51 37 30 15 3 5 10 353 352 337 328 334 314 314 303 289
167 168 176 169 165 125 101 99 70 13 356 10 11 14 28 55 77 100 107 93 99 105 111 111 107 83 49 45 48 14 4 12 17 11 12 12 2 356 359 333 310 290 295
184 188 187 186 179 171 162 149 145 135 60 20 6 15 17 40 61 94 116 126 129 125 117 124 131 112 52 56 88 52 358 355 2 11 14 12 352 349 341 328 311 268 272
196 198 194 193 188 184 163 115 86 63 39 30 17 356 350 17 40 73 137 152 165 157 161 171 162 151 169 7 113 130 130 277 320 337 349 359 348 342 323 315 308 289 273
205 195 190 188 183 181 156 146 151 152 168 223 232 310 340 9 13 39 119 151 181 179 183 204 169 163 158 182 176 150 169 172 176 315 327 336 333 327 320 317 313 300 286
196 188 185 180 179 174 164 165 161 170 186 200 73 7 347 353 358 357 87 123 168 180 191 192 161 162 170 176 177 164 140 130 166 185 290 321 332 314 302 295 301 301 295
186 182 174 175 184 177 173 172 171 178 177 178 241 278 318 326 329 328 31 144 180 188 196 196 184 180 188 185 180 169 166 173 188 183 227 274 298 301 300 289 288 293 298